QPF
0.00 0.00 0.00 0.00 0.00 0.00 0.00 0.01 0.01 0.00 0.00 0.00 0.01 0.01 0.01 0.01 0.02 0.02 0.03 0.03 0.03 0.04 0.05 0.05 0.06 0.08 0.10 0.11 0.13 0.15 0.15 0.13 0.12 0.12 0.11 0.11 0.09 0.07
0.00 0.00 0.00 0.00 0.00 0.00 0.00 0.00 0.01 0.01 0.01 0.00 0.00 0.00 0.01 0.01 0.01 0.01 0.02 0.03 0.02 0.03 0.04 0.05 0.05 0.06 0.06 0.07 0.09 0.11 0.13 0.12 0.10 0.09 0.08 0.08 0.07 0.06
0.00 0.00 0.00 0.00 0.00 0.00 0.00 0.00 0.00 0.01 0.01 0.00 0.00 0.01 0.01 0.01 0.01 0.01 0.01 0.02 0.03 0.02 0.03 0.04 0.05 0.05 0.05 0.05 0.06 0.07 0.08 0.09 0.09 0.09 0.07 0.06 0.06 0.05
0.00 0.00 0.00 0.00 0.00 0.00 0.00 0.00 0.00 0.01 0.01 0.00 0.00 0.00 0.00 0.01 0.01 0.01 0.01 0.01 0.02 0.02 0.02 0.02 0.02 0.03 0.03 0.04 0.04 0.04 0.05 0.06 0.07 0.07 0.07 0.06 0.05 0.04
0.00 0.00 0.00 0.00 0.00 0.00 0.00 0.00 0.00 0.00 0.01 0.01 0.00 0.00 0.00 0.00 0.01 0.01 0.01 0.01 0.01 0.01 0.02 0.02 0.02 0.02 0.02 0.03 0.04 0.04 0.04 0.04 0.04 0.05 0.06 0.05 0.05 0.05
0.00 0.00 0.00 0.00 0.00 0.00 0.00 0.01 0.01 0.01 0.01 0.01 0.00 0.00 0.00 0.00 0.01 0.01 0.01 0.01 0.01 0.01 0.01 0.02 0.02 0.02 0.02 0.02 0.02 0.03 0.03 0.03 0.03 0.03 0.04 0.04 0.04 0.05
0.00 0.00 0.00 0.00 0.00 0.00 0.00 0.00 0.01 0.01 0.01 0.01 0.00 0.00 0.00 0.00 0.01 0.01 0.01 0.01 0.01 0.01 0.02 0.02 0.02 0.03 0.02 0.02 0.02 0.02 0.02 0.02 0.02 0.02 0.03 0.03 0.04 0.04
0.00 0.00 0.00 0.00 0.00 0.00 0.00 0.00 0.00 0.00 0.01 0.01 0.01 0.01 0.01 0.01 0.01 0.01 0.01 0.01 0.01 0.02 0.02 0.02 0.03 0.04 0.04 0.03 0.02 0.02 0.02 0.02 0.02 0.02 0.02 0.03 0.03 0.04
0.00 0.00 0.00 0.00 0.00 0.00 0.00 0.00 0.00 0.00 0.00 0.00 0.01 0.01 0.01 0.01 0.02 0.02 0.03 0.03 0.02 0.03 0.04 0.03 0.03 0.03 0.02 0.02 0.02 0.01 0.01 0.01 0.01 0.01 0.02 0.02 0.03 0.04
0.00 0.00 0.00 0.00 0.00 0.00 0.00 0.00 0.00 0.00 0.00 0.00 0.01 0.01 0.01 0.02 0.03 0.03 0.03 0.04 0.03 0.02 0.03 0.02 0.02 0.02 0.02 0.02 0.01 0.01 0.01 0.01 0.01 0.01 0.01 0.01 0.02 0.03
0.00 0.00 0.00 0.00 0.00 0.00 0.00 0.00 0.00 0.01 0.00 0.00 0.00 0.00 0.00 0.00 0.01 0.01 0.02 0.03 0.03 0.03 0.04 0.03 0.02 0.02 0.02 0.02 0.01 0.01 0.01 0.01 0.01 0.00 0.01 0.01 0.02 0.03
0.00 0.00 0.00 0.00 0.00 0.00 0.00 0.00 0.01 0.01 0.01 0.01 0.01 0.01 0.01 0.01 0.00 0.01 0.02 0.03 0.04 0.04 0.05 0.05 0.03 0.04 0.03 0.02 0.01 0.01 0.01 0.01 0.01 0.01 0.01 0.01 0.02 0.03
0.00 0.00 0.00 0.00 0.00 0.00 0.00 0.00 0.00 0.00 0.01 0.01 0.02 0.02 0.02 0.02 0.03 0.03 0.03 0.04 0.05 0.04 0.06 0.08 0.07 0.06 0.05 0.03 0.03 0.03 0.02 0.02 0.02 0.01 0.01 0.02 0.02 0.02
0.00 0.00 0.00 0.00 0.00 0.00 0.00 0.00 0.00 0.00 0.00 0.00 0.01 0.01 0.02 0.03 0.03 0.04 0.05 0.05 0.04 0.04 0.05 0.08 0.08 0.08 0.07 0.05 0.03 0.03 0.03 0.03 0.03 0.03 0.02 0.02 0.03 0.04
0.00 0.00 0.00 0.00 0.00 0.00 0.00 0.00 0.00 0.00 0.01 0.02 0.02 0.02 0.02 0.03 0.03 0.03 0.04 0.05 0.04 0.03 0.03 0.05 0.06 0.07 0.08 0.06 0.04 0.04 0.05 0.04 0.04 0.04 0.04 0.04 0.02 0.03
0.00 0.00 0.00 0.00 0.00 0.00 0.01 0.01 0.01 0.01 0.01 0.02 0.03 0.04 0.04 0.05 0.04 0.03 0.04 0.04 0.05 0.04 0.04 0.05 0.05 0.06 0.06 0.06 0.05 0.04 0.05 0.05 0.05 0.05 0.05 0.05 0.05 0.04
0.00 0.00 0.00 0.00 0.01 0.01 0.02 0.02 0.03 0.03 0.02 0.01 0.03 0.05 0.05 0.04 0.04 0.04 0.04 0.04 0.05 0.05 0.05 0.06 0.07 0.07 0.06 0.06 0.06 0.05 0.05 0.04 0.04 0.05 0.06 0.06 0.06 0.06
0.00 0.00 0.00 0.01 0.01 0.02 0.02 0.03 0.03 0.03 0.03 0.02 0.02 0.05 0.06 0.04 0.05 0.05 0.05 0.05 0.05 0.05 0.06 0.08 0.08 0.08 0.07 0.06 0.04 0.05 0.06 0.06 0.05 0.06 0.07 0.07 0.07 0.08
0.00 0.00 0.01 0.01 0.01 0.02 0.02 0.02 0.02 0.02 0.03 0.02 0.02 0.04 0.05 0.05 0.04 0.05 0.06 0.06 0.06 0.07 0.07 0.09 0.10 0.08 0.07 0.06 0.06 0.05 0.07 0.08 0.08 0.08 0.08 0.07 0.06 0.08
0.00 0.01 0.01 0.02 0.02 0.02 0.02 0.02 0.02 0.03 0.03 0.03 0.03 0.04 0.05 0.04 0.04 0.05 0.07 0.07 0.07 0.09 0.09 0.09 0.08 0.08 0.08 0.08 0.09 0.08 0.06 0.08 0.09 0.08 0.08 0.08 0.06 0.07
0.02 0.02 0.02 0.03 0.03 0.02 0.03 0.03 0.03 0.04 0.04 0.04 0.05 0.06 0.05 0.06 0.05 0.04 0.06 0.07 0.05 0.07 0.08 0.08 0.09 0.09 0.11 0.12 0.10 0.09 0.10 0.09 0.10 0.10 0.09 0.09 0.08 0.06
0.02 0.03 0.03 0.04 0.04 0.03 0.03 0.04 0.04 0.05 0.05 0.05 0.06 0.06 0.06 0.06 0.05 0.06 0.07 0.08 0.07 0.06 0.07 0.07 0.10 0.12 0.11 0.11 0.10 0.11 0.14 0.13 0.11 0.11 0.11 0.11 0.10 0.08
0.03 0.03 0.03 0.03 0.04 0.04 0.04 0.05 0.04 0.05 0.05 0.05 0.06 0.06 0.05 0.05 0.04 0.05 0.06 0.07 0.07 0.07 0.08 0.09 0.10 0.12 0.11 0.11 0.13 0.13 0.14 0.16 0.13 0.11 0.10 0.11 0.11 0.10
MSLP
1018.62 1018.54 1018.45 1018.33 1018.20 1018.02 1017.81 1017.57 1017.29 1016.98 1016.66 1016.34 1016.02 1015.72 1015.44 1015.19 1014.98 1014.82 1014.70 1014.64 1014.64 1014.71 1014.84 1015.03 1015.28 1015.57 1015.89 1016.23 1016.57 1016.91 1017.23 1017.54 1017.83 1018.10 1018.38 1018.66 1018.95 1019.26
1018.73 1018.68 1018.60 1018.50 1018.36 1018.16 1017.93 1017.64 1017.32 1016.97 1016.61 1016.26 1015.91 1015.59 1015.30 1015.04 1014.82 1014.64 1014.50 1014.42 1014.38 1014.41 1014.49 1014.63 1014.82 1015.07 1015.34 1015.65 1015.96 1016.27 1016.57 1016.86 1017.12 1017.37 1017.61 1017.86 1018.11 1018.38
1018.73 1018.71 1018.66 1018.57 1018.44 1018.25 1018.00 1017.70 1017.36 1017.00 1016.62 1016.24 1015.88 1015.54 1015.24 1014.97 1014.73 1014.53 1014.37 1014.25 1014.18 1014.16 1014.19 1014.28 1014.42 1014.61 1014.85 1015.13 1015.42 1015.71 1016.00 1016.27 1016.53 1016.76 1016.97 1017.19 1017.40 1017.63
1018.62 1018.63 1018.60 1018.54 1018.43 1018.25 1018.02 1017.73 1017.40 1017.04 1016.66 1016.28 1015.91 1015.57 1015.25 1014.97 1014.72 1014.50 1014.30 1014.15 1014.03 1013.96 1013.93 1013.96 1014.06 1014.20 1014.40 1014.65 1014.92 1015.20 1015.48 1015.76 1016.01 1016.23 1016.44 1016.63 1016.81 1017.00
1018.41 1018.44 1018.44 1018.40 1018.32 1018.18 1017.98 1017.72 1017.41 1017.07 1016.71 1016.34 1015.98 1015.63 1015.31 1015.02 1014.75 1014.50 1014.28 1014.08 1013.92 1013.79 1013.71 1013.68 1013.72 1013.81 1013.96 1014.17 1014.42 1014.69 1014.97 1015.25 1015.51 1015.74 1015.95 1016.14 1016.30 1016.45
1018.12 1018.16 1018.18 1018.17 1018.12 1018.02 1017.87 1017.65 1017.38 1017.07 1016.74 1016.39 1016.04 1015.70 1015.38 1015.08 1014.80 1014.53 1014.28 1014.04 1013.83 1013.65 1013.50 1013.41 1013.38 1013.41 1013.50 1013.66 1013.88 1014.13 1014.40 1014.68 1014.96 1015.21 1015.43 1015.62 1015.78 1015.92
1017.77 1017.81 1017.85 1017.87 1017.86 1017.80 1017.69 1017.52 1017.30 1017.03 1016.72 1016.40 1016.07 1015.74 1015.42 1015.12 1014.82 1014.53 1014.25 1013.98 1013.73 1013.49 1013.29 1013.12 1013.02 1012.97 1013.00 1013.09 1013.26 1013.47 1013.73 1014.00 1014.28 1014.55 1014.79 1015.00 1015.18 1015.32
1017.39 1017.43 1017.48 1017.53 1017.55 1017.53 1017.46 1017.33 1017.15 1016.92 1016.64 1016.34 1016.03 1015.71 1015.39 1015.08 1014.78 1014.48 1014.18 1013.88 1013.59 1013.30 1013.04 1012.80 1012.61 1012.49 1012.43 1012.45 1012.54 1012.70 1012.92 1013.18 1013.45 1013.73 1013.99 1014.22 1014.41 1014.57
1016.97 1017.02 1017.09 1017.16 1017.20 1017.21 1017.18 1017.08 1016.92 1016.72 1016.46 1016.18 1015.87 1015.56 1015.25 1014.93 1014.63 1014.32 1014.01 1013.70 1013.37 1013.05 1012.73 1012.43 1012.17 1011.96 1011.81 1011.74 1011.75 1011.84 1012.00 1012.21 1012.46 1012.73 1013.00 1013.24 1013.45 1013.63
1016.54 1016.60 1016.67 1016.75 1016.82 1016.84 1016.82 1016.74 1016.60 1016.40 1016.16 1015.87 1015.57 1015.26 1014.95 1014.64 1014.34 1014.04 1013.73 1013.41 1013.07 1012.72 1012.37 1012.01 1011.69 1011.40 1011.16 1011.00 1010.92 1010.93 1011.01 1011.16 1011.37 1011.60 1011.86 1012.10 1012.32 1012.51
1016.08 1016.14 1016.23 1016.31 1016.37 1016.40 1016.38 1016.29 1016.15 1015.95 1015.70 1015.42 1015.11 1014.80 1014.49 1014.19 1013.90 1013.61 1013.31 1013.00 1012.66 1012.31 1011.94 1011.56 1011.19 1010.84 1010.53 1010.29 1010.12 1010.03 1010.03 1010.10 1010.24 1010.43 1010.64 1010.86 1011.06 1011.25
1015.57 1015.64 1015.72 1015.79 1015.84 1015.85 1015.81 1015.71 1015.55 1015.34 1015.08 1014.79 1014.48 1014.17 1013.87 1013.58 1013.30 1013.03 1012.76 1012.48 1012.17 1011.83 1011.47 1011.08 1010.69 1010.31 1009.95 1009.64 1009.39 1009.22 1009.13 1009.11 1009.17 1009.28 1009.42 1009.59 1009.77 1009.93
1015.00 1015.06 1015.12 1015.16 1015.19 1015.17 1015.10 1014.97 1014.79 1014.56 1014.29 1013.99 1013.68 1013.38 1013.09 1012.83 1012.58 1012.34 1012.10 1011.86 1011.59 1011.29 1010.96 1010.59 1010.21 1009.81 1009.43 1009.08 1008.77 1008.53 1008.35 1008.25 1008.21 1008.23 1008.29 1008.38 1008.50 1008.62
1014.35 1014.38 1014.40 1014.40 1014.38 1014.32 1014.22 1014.06 1013.86 1013.61 1013.33 1013.04 1012.74 1012.46 1012.19 1011.96 1011.74 1011.55 1011.36 1011.16 1010.94 1010.69 1010.41 1010.08 1009.73 1009.35 1008.97 1008.60 1008.26 1007.96 1007.72 1007.53 1007.39 1007.31 1007.28 1007.28 1007.30 1007.36
1013.59 1013.57 1013.54 1013.49 1013.42 1013.31 1013.17 1012.99 1012.77 1012.51 1012.24 1011.96 1011.69 1011.44 1011.21 1011.01 1010.84 1010.69 1010.55 1010.40 1010.24 1010.04 1009.81 1009.53 1009.22 1008.89 1008.53 1008.17 1007.82 1007.49 1007.19 1006.93 1006.71 1006.53 1006.39 1006.29 1006.22 1006.18
1012.72 1012.64 1012.55 1012.44 1012.31 1012.16 1011.98 1011.78 1011.55 1011.31 1011.06 1010.81 1010.57 1010.36 1010.17 1010.02 1009.89 1009.79 1009.69 1009.59 1009.47 1009.33 1009.15 1008.93 1008.67 1008.38 1008.06 1007.73 1007.38 1007.05 1006.72 1006.41 1006.12 1005.85 1005.61 1005.40 1005.23 1005.10
1011.75 1011.60 1011.44 1011.28 1011.10 1010.91 1010.70 1010.49 1010.27 1010.05 1009.83 1009.62 1009.43 1009.27 1009.13 1009.02 1008.93 1008.86 1008.80 1008.73 1008.65 1008.55 1008.41 1008.24 1008.03 1007.78 1007.51 1007.21 1006.90 1006.57 1006.24 1005.90 1005.56 1005.23 1004.90 1004.60 1004.33 1004.10
1010.68 1010.47 1010.25 1010.03 1009.82 1009.60 1009.39 1009.18 1008.99 1008.80 1008.62 1008.46 1008.32 1008.21 1008.11 1008.04 1007.98 1007.94 1007.89 1007.84 1007.78 1007.69 1007.58 1007.44 1007.27 1007.07 1006.84 1006.59 1006.31 1006.01 1005.69 1005.35 1004.99 1004.61 1004.23 1003.86 1003.51 1003.19
1009.54 1009.28 1009.03 1008.77 1008.53 1008.31 1008.10 1007.91 1007.75 1007.60 1007.47 1007.35 1007.26 1007.19 1007.14 1007.09 1007.05 1007.02 1006.98 1006.93 1006.87 1006.78 1006.68 1006.55 1006.41 1006.24 1006.05 1005.84 1005.61 1005.35 1005.06 1004.73 1004.38 1003.99 1003.58 1003.16 1002.76 1002.38
1008.36 1008.08 1007.80 1007.54 1007.29 1007.07 1006.88 1006.72 1006.59 1006.48 1006.39 1006.33 1006.28 1006.24 1006.21 1006.18 1006.15 1006.12 1006.07 1006.01 1005.93 1005.83 1005.72 1005.60 1005.46 1005.32 1005.16 1004.99 1004.81 1004.59 1004.35 1004.06 1003.73 1003.36 1002.96 1002.53 1002.10 1001.69
1007.18 1006.88 1006.61 1006.35 1006.12 1005.92 1005.76 1005.63 1005.53 1005.46 1005.41 1005.38 1005.36 1005.35 1005.33 1005.31 1005.28 1005.23 1005.17 1005.09 1004.99 1004.88 1004.75 1004.62 1004.49 1004.36 1004.23 1004.10 1003.95 1003.79 1003.60 1003.36 1003.08 1002.75 1002.38 1001.97 1001.54 1001.13
1006.01 1005.73 1005.47 1005.23 1005.03 1004.86 1004.73 1004.64 1004.57 1004.53 1004.51 1004.51 1004.51 1004.51 1004.50 1004.48 1004.44 1004.38 1004.30 1004.20 1004.08 1003.95 1003.81 1003.68 1003.55 1003.43 1003.32 1003.21 1003.11 1002.99 1002.85 1002.68 1002.46 1002.19 1001.86 1001.50 1001.11 1000.71
1004.89 1004.63 1004.39 1004.19 1004.02 1003.89 1003.80 1003.74 1003.70 1003.68 1003.69 1003.70 1003.71 1003.71 1003.70 1003.68 1003.64 1003.57 1003.48 1003.37 1003.24 1003.09 1002.95 1002.81 1002.68 1002.57 1002.47 1002.39 1002.32 1002.25 1002.16 1002.04 1001.88 1001.68 1001.42 1001.12 1000.78 1000.43
Thickness
5671 5669 5667 5667 5665 5664 5663 5661 5658 5658 5663 5668 5670 5672 5671 5671 5671 5672 5675 5677 5678 5680 5682 5684 5687 5688 5690 5692 5695 5696 5697 5698 5699 5700 5701 5701 5701 5702
5664 5661 5659 5661 5660 5658 5657 5656 5654 5651 5652 5658 5659 5663 5662 5661 5664 5665 5667 5669 5671 5674 5677 5679 5681 5683 5685 5687 5689 5692 5694 5695 5696 5698 5699 5700 5701 5701
5661 5658 5655 5652 5652 5652 5651 5650 5648 5647 5645 5649 5652 5654 5652 5651 5654 5657 5660 5663 5667 5668 5670 5672 5674 5677 5679 5682 5684 5686 5689 5691 5693 5694 5696 5697 5698 5700
5657 5654 5651 5650 5646 5645 5644 5643 5642 5639 5637 5637 5641 5644 5644 5645 5646 5648 5653 5658 5660 5663 5663 5665 5667 5670 5673 5675 5678 5681 5683 5685 5687 5690 5692 5694 5695 5697
5653 5650 5647 5644 5641 5641 5637 5637 5636 5636 5633 5632 5634 5636 5637 5639 5639 5642 5646 5648 5651 5656 5657 5659 5661 5663 5666 5669 5672 5675 5677 5680 5682 5685 5687 5689 5691 5693
5650 5647 5644 5641 5637 5634 5632 5630 5629 5627 5627 5626 5628 5630 5630 5632 5632 5634 5638 5642 5644 5648 5651 5654 5655 5656 5659 5662 5665 5668 5671 5673 5676 5679 5682 5684 5687 5689
5648 5645 5642 5638 5633 5628 5627 5626 5623 5621 5621 5621 5621 5622 5623 5622 5623 5626 5628 5631 5636 5639 5642 5647 5650 5653 5655 5656 5659 5662 5665 5667 5670 5673 5676 5679 5682 5685
5645 5642 5640 5635 5630 5623 5619 5615 5611 5611 5612 5611 5612 5612 5611 5612 5613 5614 5616 5620 5623 5631 5632 5636 5641 5645 5649 5652 5656 5657 5658 5661 5664 5666 5670 5673 5677 5680
5642 5639 5637 5637 5628 5625 5619 5612 5608 5604 5600 5600 5602 5602 5603 5604 5602 5603 5605 5607 5611 5617 5618 5623 5630 5635 5641 5647 5648 5650 5651 5654 5657 5660 5663 5667 5671 5675
5640 5637 5633 5629 5626 5620 5616 5613 5610 5608 5603 5597 5597 5596 5596 5594 5593 5592 5593 5597 5601 5606 5609 5612 5620 5626 5633 5638 5641 5643 5644 5647 5650 5654 5657 5661 5666 5669
5638 5635 5631 5626 5621 5612 5608 5606 5605 5604 5601 5597 5593 5590 5587 5584 5582 5582 5586 5589 5594 5601 5605 5605 5611 5617 5623 5629 5634 5636 5638 5641 5644 5648 5651 5655 5659 5662
5638 5635 5628 5622 5616 5607 5603 5602 5600 5599 5596 5594 5588 5585 5583 5581 5578 5575 5579 5582 5586 5591 5597 5597 5602 5606 5611 5621 5627 5631 5632 5635 5638 5642 5646 5650 5652 5654
5635 5633 5630 5620 5611 5603 5596 5595 5595 5591 5589 5587 5586 5585 5583 5582 5580 5578 5576 5576 5579 5583 5589 5590 5592 5596 5600 5608 5616 5622 5626 5631 5634 5637 5640 5644 5647 5650
5627 5627 5625 5614 5606 5598 5593 5591 5586 5580 5581 5583 5583 5582 5581 5581 5580 5578 5576 5574 5574 5576 5579 5580 5583 5586 5590 5596 5603 5612 5618 5623 5627 5632 5637 5640 5640 5644
5622 5620 5613 5605 5599 5595 5591 5585 5580 5579 5580 5580 5579 5578 5578 5577 5575 5572 5570 5569 5569 5571 5573 5574 5576 5579 5582 5587 5594 5601 5606 5613 5618 5624 5629 5633 5638 5640
5616 5613 5606 5600 5594 5591 5589 5586 5582 5581 5579 5577 5576 5575 5574 5571 5569 5568 5566 5566 5567 5570 5571 5571 5572 5574 5577 5581 5586 5592 5598 5603 5610 5615 5620 5625 5630 5636
5609 5608 5607 5605 5602 5598 5594 5590 5585 5581 5576 5574 5572 5570 5568 5567 5565 5564 5562 5562 5562 5565 5568 5570 5570 5571 5572 5575 5579 5586 5591 5596 5601 5606 5610 5616 5624 5630
5595 5601 5603 5602 5599 5596 5591 5587 5583 5579 5575 5572 5569 5566 5563 5562 5561 5559 5558 5557 5558 5560 5563 5565 5566 5566 5567 5572 5574 5579 5584 5590 5595 5599 5604 5609 5617 5625
5591 5598 5599 5598 5595 5591 5587 5583 5579 5576 5572 5568 5566 5563 5560 5558 5556 5554 5553 5552 5553 5556 5558 5560 5560 5560 5563 5569 5576 5574 5579 5584 5588 5593 5598 5603 5610 5617
5595 5596 5595 5593 5589 5585 5581 5578 5575 5571 5568 5565 5562 5559 5557 5554 5552 5550 5550 5549 5550 5551 5553 5555 5557 5559 5561 5565 5571 5574 5574 5579 5583 5587 5592 5597 5603 5607
5596 5593 5590 5586 5583 5579 5575 5571 5568 5566 5563 5560 5558 5555 5553 5551 5550 5548 5547 5545 5544 5547 5550 5553 5556 5556 5558 5559 5563 5569 5572 5573 5577 5581 5585 5589 5595 5601
5588 5584 5581 5578 5575 5572 5568 5565 5563 5561 5559 5556 5554 5552 5550 5548 5547 5546 5545 5545 5545 5546 5549 5552 5553 5554 5554 5556 5561 5565 5568 5570 5572 5573 5576 5582 5588 5595
5580 5576 5574 5571 5568 5565 5562 5560 5558 5557 5555 5553 5551 5549 5547 5546 5545 5545 5544 5544 5544 5546 5546 5548 5550 5552 5554 5556 5558 5561 5564 5566 5568 5571 5574 5576 5580 5585